When you browse on this site, cookies collect data to enhance your experience and personalize the content and advertising you see.
Visit our Privacy Policy to learn more. By continuing to use the site, you agree to this use of cookies and data.
  • In Hungary
  • List of Countries
  • For 7 days
  • Water Temperature
  • Satellite Maps
  • Weather Map
  • News
  • Weather Widgets
  • user-avatar
    Login

    Hourly Weather San Jacinto

    Today, 27 June, Thursday

    Time Temperature Precipitation Wind Pressure Humidity
    00:00 +18°C° 0 mm 1 mps 717 mmHg 77%
    01:00 +16°C° 0 mm 0 mps 717 mmHg 77%
    02:00 +15°C° 0 mm 0 mps 717 mmHg 78%
    03:00 +15°C° 0 mm 0 mps 717 mmHg 78%
    04:00 +15°C° 0 mm 0 mps 717 mmHg 78%
    05:00 +19°C° 0 mm 1 mps 718 mmHg 71%
    06:00 +21°C° 0 mm 1 mps 719 mmHg 64%
    07:00 +23°C° 0 mm 1 mps 719 mmHg 57%
    08:00 +25°C° 0 mm 1 mps 719 mmHg 49%
    09:00 +27°C° 0 mm 2 mps 719 mmHg 41%
    10:00 +29°C° 0 mm 2 mps 720 mmHg 34%
    11:00 +30°C° 0 mm 3 mps 720 mmHg 31%
    12:00 +31°C° 0 mm 3 mps 720 mmHg 28%
    13:00 +34°C° 0 mm 4 mps 719 mmHg 26%
    14:00 +33°C° 0 mm 4 mps 719 mmHg 28%
    15:00 +32°C° 0 mm 4 mps 719 mmHg 30%
    16:00 +32°C° 0 mm 4 mps 718 mmHg 32%
    17:00 +28°C° 0 mm 3 mps 718 mmHg 39%
    18:00 +26°C° 0 mm 3 mps 718 mmHg 46%
    19:00 +24°C° 0 mm 2 mps 718 mmHg 53%
    20:00 +23°C° 0 mm 2 mps 718 mmHg 56%
    21:00 +21°C° 0 mm 1 mps 718 mmHg 60%
    22:00 +20°C° 0 mm 1 mps 718 mmHg 63%
    23:00 +20°C° 0 mm 1 mps 718 mmHg 64%

    Tomorrow, 28 June, Friday

    Time Temperature Precipitation Wind Pressure Humidity
    00:00 +19°C° 0 mm 1 mps 718 mmHg 66%
    01:00 +19°C° 0 mm 1 mps 717 mmHg 68%
    02:00 +18°C° 0 mm 1 mps 717 mmHg 68%
    03:00 +18°C° 0 mm 1 mps 717 mmHg 68%
    04:00 +16°C° 0 mm 1 mps 717 mmHg 69%
    05:00 +20°C° 0 mm 1 mps 718 mmHg 58%
    06:00 +22°C° 0 mm 1 mps 718 mmHg 47%
    07:00 +25°C° 0 mm 1 mps 719 mmHg 36%
    08:00 +27°C° 0 mm 2 mps 719 mmHg 30%
    09:00 +29°C° 0 mm 2 mps 719 mmHg 25%
    10:00 +31°C° 0 mm 2 mps 719 mmHg 19%
    11:00 +33°C° 0 mm 3 mps 719 mmHg 18%
    12:00 +34°C° 0 mm 4 mps 719 mmHg 16%
    13:00 +35°C° 0 mm 4 mps 719 mmHg 15%
    14:00 +34°C° 0 mm 4 mps 719 mmHg 17%
    15:00 +33°C° 0 mm 4 mps 718 mmHg 18%
    16:00 +33°C° 0 mm 5 mps 718 mmHg 20%
    17:00 +29°C° 0 mm 4 mps 718 mmHg 26%
    18:00 +26°C° 0 mm 3 mps 718 mmHg 31%
    19:00 +24°C° 0 mm 2 mps 718 mmHg 37%
    20:00 +23°C° 0 mm 2 mps 718 mmHg 38%
    21:00 +21°C° 0 mm 2 mps 718 mmHg 39%
    22:00 +21°C° 0 mm 1 mps 718 mmHg 40%
    23:00 +21°C° 0 mm 1 mps 718 mmHg 41%

    Day after tomorrow, 29 June, Saturday

    Time Temperature Precipitation Wind Pressure Humidity
    00:00 +20°C° 0 mm 1 mps 718 mmHg 42%
    01:00 +20°C° 0 mm 1 mps 718 mmHg 42%
    02:00 +19°C° 0 mm 1 mps 718 mmHg 41%
    03:00 +19°C° 0 mm 1 mps 718 mmHg 40%
    04:00 +19°C° 0 mm 1 mps 718 mmHg 38%
    05:00 +21°C° 0 mm 1 mps 718 mmHg 32%
    06:00 +23°C° 0 mm 1 mps 719 mmHg 26%
    07:00 +26°C° 0 mm 1 mps 719 mmHg 20%
    08:00 +28°C° 0 mm 1 mps 720 mmHg 17%
    09:00 +29°C° 0 mm 1 mps 720 mmHg 14%
    10:00 +31°C° 0 mm 1 mps 720 mmHg 11%
    11:00 +32°C° 0 mm 2 mps 720 mmHg 11%
    12:00 +33°C° 0 mm 3 mps 719 mmHg 11%
    13:00 +34°C° 0 mm 4 mps 719 mmHg 12%
    14:00 +34°C° 0 mm 4 mps 719 mmHg 12%
    15:00 +33°C° 0 mm 3 mps 718 mmHg 13%
    16:00 +33°C° 0 mm 3 mps 718 mmHg 14%
    17:00 +29°C° 0 mm 3 mps 718 mmHg 19%
    18:00 +27°C° 0 mm 2 mps 718 mmHg 23%
    19:00 +25°C° 0 mm 2 mps 718 mmHg 28%
    20:00 +24°C° 0 mm 2 mps 718 mmHg 29%
    21:00 +23°C° 0 mm 2 mps 718 mmHg 31%
    22:00 +22°C° 0 mm 1 mps 719 mmHg 33%
    23:00 +21°C° 0 mm 1 mps 718 mmHg 33%

    30 June, Sunday

    Time Temperature Precipitation Wind Pressure Humidity
    00:00 +21°C° 0 mm 1 mps 718 mmHg 34%
    01:00 +20°C° 0 mm 1 mps 718 mmHg 34%
    02:00 +20°C° 0 mm 1 mps 718 mmHg 32%
    03:00 +20°C° 0 mm 1 mps 718 mmHg 30%
    04:00 +20°C° 0 mm 1 mps 718 mmHg 29%
    05:00 +22°C° 0 mm 1 mps 718 mmHg 24%
    06:00 +24°C° 0 mm 1 mps 719 mmHg 20%
    07:00 +26°C° 0 mm 1 mps 719 mmHg 16%
    08:00 +28°C° 0 mm 2 mps 719 mmHg 14%
    09:00 +30°C° 0 mm 2 mps 719 mmHg 13%
    10:00 +32°C° 0 mm 2 mps 720 mmHg 11%
    11:00 +34°C° 0 mm 3 mps 719 mmHg 11%
    12:00 +35°C° 0 mm 3 mps 719 mmHg 11%
    13:00 +36°C° 0 mm 4 mps 719 mmHg 12%
    14:00 +35°C° 0 mm 4 mps 718 mmHg 13%
    15:00 +35°C° 0 mm 4 mps 718 mmHg 14%
    16:00 +35°C° 0 mm 5 mps 718 mmHg 16%
    17:00 +32°C° 0 mm 4 mps 718 mmHg 20%
    18:00 +28°C° 0 mm 3 mps 717 mmHg 25%
    19:00 +26°C° 0 mm 2 mps 717 mmHg 29%
    20:00 +24°C° 0 mm 2 mps 718 mmHg 33%
    21:00 +23°C° 0 mm 2 mps 718 mmHg 37%
    22:00 +22°C° 0 mm 1 mps 718 mmHg 40%
    23:00 +21°C° 0 mm 1 mps 718 mmHg 40%

    1 July, Monday

    Time Temperature Precipitation Wind Pressure Humidity
    00:00 +21°C° 0 mm 1 mps 717 mmHg 40%
    01:00 +20°C° 0 mm 1 mps 717 mmHg 40%
    02:00 +20°C° 0 mm 1 mps 717 mmHg 39%
    03:00 +19°C° 0 mm 1 mps 717 mmHg 39%
    04:00 +19°C° 0 mm 1 mps 717 mmHg 38%
    05:00 +21°C° 0 mm 1 mps 717 mmHg 32%
    06:00 +24°C° 0 mm 1 mps 718 mmHg 27%
    07:00 +26°C° 0 mm 1 mps 718 mmHg 21%
    08:00 +28°C° 0 mm 2 mps 718 mmHg 19%
    09:00 +30°C° 0 mm 2 mps 718 mmHg 17%
    10:00 +31°C° 0 mm 2 mps 719 mmHg 15%
    11:00 +33°C° 0 mm 3 mps 718 mmHg 15%
    12:00 +35°C° 0 mm 3 mps 718 mmHg 14%
    13:00 +36°C° 0 mm 4 mps 718 mmHg 14%
    14:00 +35°C° 0 mm 4 mps 717 mmHg 16%
    15:00 +35°C° 0 mm 4 mps 717 mmHg 19%
    16:00 +34°C° 0 mm 4 mps 717 mmHg 21%
    17:00 +30°C° 0 mm 4 mps 716 mmHg 27%
    18:00 +27°C° 0 mm 3 mps 716 mmHg 33%
    19:00 +25°C° 0 mm 2 mps 716 mmHg 39%
    20:00 +24°C° 0 mm 2 mps 716 mmHg 42%
    21:00 +21°C° 0 mm 2 mps 716 mmHg 45%
    22:00 +21°C° 0 mm 1 mps 716 mmHg 48%
    23:00 +21°C° 0 mm 1 mps 716 mmHg 49%

    2 July, Tuesday

    Time Temperature Precipitation Wind Pressure Humidity
    00:00 +20°C° 0 mm 1 mps 716 mmHg 50%
    01:00 +20°C° 0 mm 1 mps 716 mmHg 51%
    02:00 +19°C° 0 mm 1 mps 716 mmHg 52%
    03:00 +19°C° 0 mm 1 mps 716 mmHg 53%
    04:00 +19°C° 0 mm 1 mps 716 mmHg 53%
    05:00 +21°C° 0 mm 1 mps 716 mmHg 46%
    06:00 +23°C° 0 mm 1 mps 717 mmHg 39%
    07:00 +26°C° 0 mm 1 mps 717 mmHg 32%
    08:00 +28°C° 0 mm 2 mps 717 mmHg 28%
    09:00 +29°C° 0 mm 2 mps 718 mmHg 25%
    10:00 +31°C° 0 mm 3 mps 718 mmHg 21%
    11:00 +33°C° 0 mm 3 mps 717 mmHg 21%
    12:00 +34°C° 0 mm 4 mps 717 mmHg 20%
    13:00 +35°C° 0 mm 4 mps 717 mmHg 19%
    14:00 +34°C° 0 mm 4 mps 716 mmHg 21%
    15:00 +34°C° 0 mm 4 mps 716 mmHg 23%
    16:00 +33°C° 0 mm 4 mps 715 mmHg 25%
    17:00 +30°C° 0 mm 4 mps 715 mmHg 33%
    18:00 +27°C° 0 mm 3 mps 715 mmHg 41%
    19:00 +24°C° 0 mm 2 mps 715 mmHg 50%
    20:00 +23°C° 0 mm 2 mps 715 mmHg 53%
    21:00 +21°C° 0 mm 2 mps 715 mmHg 57%
    22:00 +21°C° 0 mm 1 mps 715 mmHg 60%
    23:00 +20°C° 0 mm 1 mps 715 mmHg 62%
    Show more